Hourly Data Report for September 24, 2017

All times are specified in Local Standard Time (LST). Add 1 hour to adjust for Daylight Saving Time where and when it is observed.

EUREKA CLIMATE
NUNAVUT

79°59'21.000" N
85°56'02.000" W
10.00 m
2401199
71613
NEK

Download Data

Hourly Data (September 2017)
Hourly Data Report for September 24, 2017
Temp Definition
°C
Dew Point Temp Definition
°C
Rel Hum Definition
%
Wind Dir Definition
10's deg

Wind Spd Definition
km/h
Visibility Definition
km
Stn Press Definition
kPa
Hmdx Definition


Wind Chill Definition


Weather Definition


TIME
00:00 -9.6 -11.3 87 34 16   101.82   -16 LegendNANA
01:00 -11.0 -12.2 91 35 10   101.84   -16 LegendNANA
02:00 -11.2 -12.7 89 35 5   101.86   -14 LegendNANA
03:00 -9.4 -11.0 88 11 6   101.89   -13 LegendNANA
04:00 -11.0 -12.6 88 3 3   101.87   -13 LegendNANA
05:00 -11.7 -13.4 87 2 13   101.89   -18 LegendNANA
06:00 -10.5 -12.6 85 3 8   101.90   -15 LegendNANA
07:00 -10.2 -12.0 87 34 4   101.90   -13 LegendNANA
08:00 -9.9 -11.8 86 31 1   101.87   -10 LegendNANA
09:00 -9.5 -11.5 85 28 2   101.84   -11 LegendNANA
10:00 -9.8 -11.7 86 1 6   101.82   -13 LegendNANA
11:00 -9.3 -11.6 83 31 1   101.80   -10 LegendNANA
12:00 -9.3 -11.5 84 10 3   101.77   -11 LegendNANA
13:00 -9.8 -11.7 86 28 4   101.76   -12 LegendNANA
14:00 -9.6 -10.7 91 30 4   101.76   -12 LegendNANA
15:00 -9.4 -10.5 92 35 4   101.74   -12 LegendNANA
16:00 -10.5 -11.7 91 2 7   101.72   -15 LegendNANA
17:00 -13.2 -14.2 92 1 14   101.70   -20 LegendNANA
18:00 -11.7 -12.3 95 2 9   101.67   -17 LegendNANA
19:00 -11.6 -12.1 96 36 5   101.61   -15 LegendNANA
20:00 -12.6 -13.3 95 2 7   101.55   -17 LegendNANA
21:00 -13.6 -14.5 93 35 4   101.50   -16 LegendNANA
22:00 -15.8 -16.9 91 1 5   101.44   -20 LegendNANA
23:00 -15.9 -17.0 92 1 3   101.40   -18 LegendNANA

Notes on Data Quality.

Legend

  • E = Estimated
  • M = Missing
  • NA = Not Available
  • ‡ = Partner data that is not subject to review by the National Climate Archives
Date modified: